Regional Weather Roundup
Issued by NWS

Home | Current Version | Previous Version | Graphics & Text | Print | Product List | Glossary On
Versions: 1 2 3 4 5 6 7 8 9 10 11 12 13 14 15 16 17 18 19 20 21 22 23 24 25 26 27 28 29 30 31 32 33 34 35 36 37 38 39 40 41 42 43 44 45 46 47 48 49 50
000
ASUS43 KDTX 221310
RWRMI
MICHIGAN HOURLY REGIONAL WEATHER ROUNDUP
NATIONAL WEATHER SERVICE DETROIT/PONTIAC MI
900 AM EDT TUE JUL 22 2014

NOTE: "FAIR" INDICATES FEW OR NO CLOUDS BELOW 12,000 FEET WITH NO
SIGNIFICANT WEATHER AND/OR OBSTRUCTION TO VISIBILITY.

MIZ047>049-052>055-059>063-066>070-074>076-081>083-221400-
SOUTHEAST LOWER MICHIGAN

CITY           SKY/WX    TMP DP  RH WIND       PRES   REMARKS
ADRIAN         SUNNY     71  63  75 CALM      30.13S
ALMA           SUNNY     70  65  83 S6        30.09S
ANN ARBOR      SUNNY     73  62  68 SW6       30.13R
BAD AXE        SUNNY     72  60  65 S8G16     30.11S
DETROIT CITY   SUNNY     78  63  59 W7        30.13R
DETROIT        SUNNY     75  61  61 SW7       30.13R
FLINT          SUNNY     76  62  62 SW7       30.11F
GROSSE ILE     SUNNY     75  66  73 W3        30.12R
HILLSDALE      SUNNY     74  65  72 SW3       30.14R
HOWELL         SUNNY     72  62  70 SW6       30.12S

CITY           SKY/WX    TMP DP  RH WIND       PRES   REMARKS
JACKSON        SUNNY     74  64  71 S8        30.12S
LAMBERTVILLE   SUNNY     75  64  69 W3        30.13S
LANSING        SUNNY     73  63  70 S8        30.11F
LAPEER         NOT AVBL
MASON          SUNNY     72  63  73 CALM      30.11F
MONROE         SUNNY     73  63  68 SW7       30.11S
MT. CLEMENS    SUNNY     77  65  67 SW5       30.12R
PONTIAC        SUNNY     74  60  61 SW6       30.12F
PORT HOPE        N/A     74  60  61 VRB6      30.08S
PORT HURON     SUNNY     70  68  94 CALM      30.13S
TRI CITIES     SUNNY     73  63  70 S8        30.09S
YPSILANTI      SUNNY     77  61  57 W6        30.13R
$$
MIZ043>046-050>051-056>058-064>065-071>073-077>080-221400-
SOUTHWEST LOWER MICHIGAN

CITY           SKY/WX    TMP DP  RH WIND       PRES   REMARKS
BATTLE CREEK   SUNNY     73  64  73 S7        30.12S
BENTON HARBOR  SUNNY     72  65  78 S8        30.08F
BIG RAPIDS     SUNNY     72  69  89 S6        30.04F
COLDWATER      SUNNY     74  65  72 S3        30.12S
HOLLAND        SUNNY     73  66  78 S8        30.07F
GRAND RAPIDS   MOSUNNY   74  67  78 S9        30.08F
KALAMAZOO      SUNNY     73  65  75 S7        30.11S
MARSHALL       SUNNY     72  64  76 S3        30.11F
MUSKEGON       MOSUNNY   76  65  68 S15G23    30.04F
$$
MIZ016>042-221400-
NORTHERN LOWER MICHIGAN

CITY           SKY/WX    TMP DP  RH WIND       PRES   REMARKS
ALPENA         SUNNY     75  65  70 S10       30.02F
BEAVER ISLAND  PTSUNNY   74  66  77 S12G21    29.94F
BELLAIRE       MOSUNNY   75  65  70 S7        29.98F
CADILLAC       SUNNY     71  66  84 S9G17     30.03F
CHARLEVOIX     MOSUNNY   75  66  74 S7G16     30.00S
FRANKFORT      MOSUNNY   78  65  64 S14G20    29.96S
GRAYLING       SUNNY     74  66  76 S6        30.04F
HARBOR SPRINGS SUNNY     74  65  73 S6        29.98F
HOUGHTON LAKE  SUNNY     73  65  75 S10       30.05F
MANISTEE       MOSUNNY   73  64  73 S7        29.99F
OSCODA         SUNNY     74  65  74 SW8       30.06F
PELLSTON       SUNNY     75  66  73 S10       29.98F
TRAVERSE CITY  PTSUNNY   77  65  66 VRB7G17   29.96F
$$
MIZ007>008-015-221400-
EASTERN UPPER MICHIGAN

CITY           SKY/WX    TMP DP  RH WIND       PRES   REMARKS
KINROSS        MOSUNNY   73  66  78 S8        29.97F
MACKINAC ISLAN MOSUNNY   71  64  77 S8G17     29.96F
NEWBERRY       PTSUNNY   69  64  83 S13G21    29.93S
S. S. MARIE    CLOUDY    68  62  81 E5        29.96F
$$
MIZ004>006-011>014-085-221400-
CENTRAL UPPER MICHIGAN

CITY           SKY/WX    TMP DP  RH WIND       PRES   REMARKS
MANISTIQUE     CLOUDY    63  61  94 S6        29.91F FOG
ESCANABA       CLOUDY    66  63  88 S9        29.86F
MENOMINEE      CLOUDY    75  66  73 S13G21    29.85F
SAWYER-GWINN   CLOUDY    68  66  94 SE10      29.82F FOG
$$
MIZ001>003-009>011-084-221400-
WESTERN UPPER MICHIGAN

CITY           SKY/WX    TMP DP  RH WIND       PRES   REMARKS
IRON MOUNTAIN  CLOUDY    73  68  84 S8        29.83F
HOUGHTON       CLOUDY    67  64  90 S12       29.70F
COPPER HARBOR    N/A     68  62  81 SW12G20   29.66F
IRONWOOD       CLOUDY    75  70  83 W20G26    29.75R
$$

ABBREVIATIONS USED IN REMARKS
   TC - TEMPERATURE IN CELSIUS
  WCI - WIND CHILL INDEX
   HX - HEAT INDEX
  VSB - VISIBILITY




USA.gov is the U.S. government's official web portal to all federal, state and local government web resources and services.